When you browse on this site, cookies collect data to enhance your experience and personalize the content and advertising you see.
Visit our Privacy Policy to learn more. By continuing to use the site, you agree to this use of cookies and data.
  • In Romania
  • List of Countries
  • For 7 days
  • Water Temperature
  • Satellite Maps
  • Weather Map
  • Weather Widgets
  • user-avatar
    Login

    Hourly Weather Dolany

    Today, 25 May, Saturday

    Time Temperature Precipitation Wind Pressure Humidity
    00:00 +11°C° 0 mm 1 mps 730 mmHg 91%
    01:00 +10°C° 0 mm 1 mps 729 mmHg 92%
    02:00 +10°C° 0 mm 1 mps 730 mmHg 92%
    03:00 +10°C° 0 mm 1 mps 730 mmHg 92%
    04:00 +9°C° 0 mm 1 mps 730 mmHg 92%
    05:00 +11°C° 0 mm 1 mps 730 mmHg 86%
    06:00 +13°C° 0 mm 1 mps 730 mmHg 81%
    07:00 +15°C° 0 mm 1 mps 730 mmHg 75%
    08:00 +16°C° 0 mm 2 mps 730 mmHg 67%
    09:00 +18°C° 0 mm 2 mps 730 mmHg 59%
    10:00 +20°C° 0 mm 2 mps 731 mmHg 51%
    11:00 +20°C° 0 mm 2 mps 731 mmHg 49%
    12:00 +21°C° 0 mm 2 mps 730 mmHg 48%
    13:00 +23°C° 0 mm 2 mps 730 mmHg 46%
    14:00 +23°C° 0 mm 2 mps 730 mmHg 48%
    15:00 +23°C° 0 mm 2 mps 730 mmHg 49%
    16:00 +23°C° 0 mm 2 mps 730 mmHg 51%
    17:00 +20°C° 0 mm 2 mps 730 mmHg 59%
    18:00 +19°C° 0 mm 1 mps 730 mmHg 67%
    19:00 +16°C° 0 mm 1 mps 730 mmHg 74%
    20:00 +15°C° 0 mm 1 mps 730 mmHg 78%
    21:00 +14°C° 0 mm 1 mps 730 mmHg 81%
    22:00 +13°C° 0 mm 1 mps 730 mmHg 84%
    23:00 +13°C° 0 mm 1 mps 731 mmHg 85%

    Tomorrow, 26 May, Sunday

    Time Temperature Precipitation Wind Pressure Humidity
    00:00 +13°C° 0 mm 1 mps 731 mmHg 85%
    01:00 +13°C° 0 mm 1 mps 731 mmHg 85%
    02:00 +12°C° 0 mm 1 mps 731 mmHg 86%
    03:00 +12°C° 0 mm 1 mps 731 mmHg 87%
    04:00 +12°C° 0 mm 1 mps 731 mmHg 87%
    05:00 +14°C° 0 mm 1 mps 731 mmHg 83%
    06:00 +15°C° 0 mm 1 mps 731 mmHg 79%
    07:00 +18°C° 0 mm 1 mps 731 mmHg 76%
    08:00 +18°C° 0 mm 2 mps 731 mmHg 72%
    09:00 +19°C° 0 mm 2 mps 731 mmHg 69%
    10:00 +21°C° 0 mm 2 mps 731 mmHg 65%
    11:00 +21°C° 0.2 mm 2 mps 731 mmHg 64%
    12:00 +23°C° 0.2 mm 2 mps 731 mmHg 63%
    13:00 +23°C° 0.2 mm 2 mps 731 mmHg 62%
    14:00 +22°C° 0.5 mm 3 mps 730 mmHg 66%
    15:00 +22°C° 0.5 mm 3 mps 730 mmHg 70%
    16:00 +21°C° 0.5 mm 3 mps 730 mmHg 73%
    17:00 +20°C° 0.4 mm 2 mps 730 mmHg 78%
    18:00 +19°C° 0.4 mm 2 mps 730 mmHg 82%
    19:00 +18°C° 0.4 mm 2 mps 730 mmHg 87%
    20:00 +17°C° 0.1 mm 2 mps 730 mmHg 88%
    21:00 +16°C° 0.1 mm 2 mps 730 mmHg 90%
    22:00 +15°C° 0.1 mm 2 mps 730 mmHg 92%
    23:00 +15°C° 0 mm 2 mps 730 mmHg 92%

    Day after tomorrow, 27 May, Monday

    Time Temperature Precipitation Wind Pressure Humidity
    00:00 +14°C° 0 mm 2 mps 730 mmHg 92%
    01:00 +14°C° 0 mm 2 mps 730 mmHg 92%
    02:00 +14°C° 0 mm 2 mps 730 mmHg 92%
    03:00 +14°C° 0 mm 2 mps 729 mmHg 92%
    04:00 +13°C° 0 mm 2 mps 729 mmHg 92%
    05:00 +15°C° 0 mm 2 mps 729 mmHg 88%
    06:00 +17°C° 0 mm 2 mps 730 mmHg 85%
    07:00 +18°C° 0 mm 2 mps 730 mmHg 82%
    08:00 +20°C° 0.2 mm 2 mps 730 mmHg 76%
    09:00 +21°C° 0.2 mm 3 mps 730 mmHg 71%
    10:00 +23°C° 0.2 mm 4 mps 729 mmHg 65%
    11:00 +23°C° 0.2 mm 4 mps 729 mmHg 60%
    12:00 +25°C° 0.2 mm 3 mps 729 mmHg 56%
    13:00 +26°C° 0.2 mm 3 mps 729 mmHg 51%
    14:00 +26°C° 0.3 mm 3 mps 729 mmHg 57%
    15:00 +25°C° 0.3 mm 3 mps 729 mmHg 63%
    16:00 +24°C° 0.3 mm 3 mps 728 mmHg 68%
    17:00 +23°C° 0.2 mm 2 mps 728 mmHg 72%
    18:00 +21°C° 0.2 mm 2 mps 728 mmHg 77%
    19:00 +20°C° 0.2 mm 1 mps 728 mmHg 81%
    20:00 +19°C° 0 mm 1 mps 728 mmHg 83%
    21:00 +18°C° 0 mm 1 mps 728 mmHg 85%
    22:00 +16°C° 0 mm 1 mps 728 mmHg 88%
    23:00 +16°C° 1.4 mm 1 mps 727 mmHg 90%

    28 May, Tuesday

    Time Temperature Precipitation Wind Pressure Humidity
    00:00 +16°C° 1.4 mm 1 mps 727 mmHg 92%
    01:00 +16°C° 1.4 mm 1 mps 727 mmHg 94%
    02:00 +16°C° 1 mm 1 mps 727 mmHg 94%
    03:00 +16°C° 1 mm 1 mps 726 mmHg 95%
    04:00 +16°C° 1 mm 1 mps 726 mmHg 95%
    05:00 +18°C° 0 mm 1 mps 726 mmHg 93%
    06:00 +19°C° 0 mm 1 mps 726 mmHg 90%
    07:00 +20°C° 0 mm 1 mps 726 mmHg 87%
    08:00 +22°C° 0 mm 1 mps 726 mmHg 78%
    09:00 +23°C° 0 mm 1 mps 726 mmHg 68%
    10:00 +25°C° 0 mm 1 mps 725 mmHg 59%
    11:00 +24°C° 0.7 mm 1 mps 725 mmHg 63%
    12:00 +24°C° 0.7 mm 1 mps 725 mmHg 67%
    13:00 +24°C° 0.7 mm 1 mps 725 mmHg 71%
    14:00 +23°C° 2.4 mm 1 mps 724 mmHg 76%
    15:00 +22°C° 2.4 mm 1 mps 724 mmHg 81%
    16:00 +20°C° 2.4 mm 1 mps 724 mmHg 87%
    17:00 +20°C° 1 mm 1 mps 724 mmHg 87%
    18:00 +19°C° 1 mm 1 mps 724 mmHg 87%
    19:00 +19°C° 1 mm 1 mps 724 mmHg 88%
    20:00 +18°C° 0.9 mm 1 mps 724 mmHg 88%
    21:00 +18°C° 0.9 mm 1 mps 724 mmHg 89%
    22:00 +16°C° 0.9 mm 1 mps 725 mmHg 90%
    23:00 +16°C° 0.1 mm 1 mps 725 mmHg 92%

    29 May, Wednesday

    Time Temperature Precipitation Wind Pressure Humidity
    00:00 +15°C° 0.1 mm 2 mps 725 mmHg 94%
    01:00 +15°C° 0.1 mm 2 mps 725 mmHg 97%
    02:00 +14°C° 1 mm 3 mps 726 mmHg 96%
    03:00 +13°C° 1 mm 3 mps 726 mmHg 96%
    04:00 +13°C° 1 mm 3 mps 727 mmHg 96%
    05:00 +12°C° 1 mm 3 mps 727 mmHg 96%
    06:00 +12°C° 1 mm 3 mps 728 mmHg 95%
    07:00 +11°C° 1 mm 3 mps 729 mmHg 95%
    08:00 +11°C° 0.6 mm 3 mps 729 mmHg 94%
    09:00 +11°C° 0.6 mm 3 mps 730 mmHg 94%
    10:00 +10°C° 0.6 mm 3 mps 731 mmHg 94%
    11:00 +10°C° 0.1 mm 3 mps 731 mmHg 93%
    12:00 +11°C° 0.1 mm 3 mps 732 mmHg 91%
    13:00 +12°C° 0.1 mm 2 mps 732 mmHg 90%
    14:00 +12°C° 0 mm 2 mps 733 mmHg 86%
    15:00 +13°C° 0 mm 2 mps 733 mmHg 82%
    16:00 +14°C° 0 mm 2 mps 734 mmHg 79%
    17:00 +14°C° 0 mm 2 mps 734 mmHg 81%
    18:00 +13°C° 0 mm 2 mps 734 mmHg 83%
    19:00 +13°C° 0 mm 2 mps 735 mmHg 84%
    20:00 +12°C° 0 mm 2 mps 735 mmHg 85%
    21:00 +10°C° 0 mm 2 mps 736 mmHg 86%
    22:00 +11°C° 0 mm 1 mps 736 mmHg 87%
    23:00 +10°C° 0 mm 1 mps 736 mmHg 89%

    30 May, Thursday

    Time Temperature Precipitation Wind Pressure Humidity
    00:00 +9°C° 0 mm 1 mps 736 mmHg 91%
    01:00 +8°C° 0 mm 1 mps 737 mmHg 92%
    02:00 +8°C° 0 mm 1 mps 737 mmHg 93%
    03:00 +8°C° 0 mm 1 mps 737 mmHg 94%
    04:00 +7°C° 0 mm 1 mps 737 mmHg 95%
    05:00 +9°C° 0 mm 1 mps 737 mmHg 91%
    06:00 +9°C° 0 mm 2 mps 738 mmHg 87%
    07:00 +10°C° 0 mm 2 mps 738 mmHg 82%
    08:00 +10°C° 0.2 mm 2 mps 738 mmHg 79%
    09:00 +12°C° 0.2 mm 2 mps 738 mmHg 76%
    10:00 +12°C° 0.2 mm 2 mps 738 mmHg 73%
    11:00 +12°C° 0.4 mm 2 mps 737 mmHg 74%
    12:00 +12°C° 0.4 mm 2 mps 737 mmHg 75%
    13:00 +12°C° 0.4 mm 2 mps 737 mmHg 75%
    14:00 +12°C° 0 mm 2 mps 736 mmHg 73%
    15:00 +13°C° 0 mm 2 mps 736 mmHg 70%
    16:00 +13°C° 0 mm 2 mps 736 mmHg 67%
    17:00 +12°C° 0 mm 1 mps 736 mmHg 70%
    18:00 +11°C° 0 mm 1 mps 736 mmHg 73%
    19:00 +10°C° 0 mm 1 mps 736 mmHg 76%
    20:00 +10°C° 0 mm 1 mps 736 mmHg 77%
    21:00 +9°C° 0 mm 1 mps 736 mmHg 77%
    22:00 +8°C° 0 mm 1 mps 736 mmHg 77%
    23:00 +8°C° 0 mm 1 mps 735 mmHg 76%
    Show more